| Temperature (°F) | Max | Average | Min |
|---|---|---|---|
| Max Temperature | 102 | 95.06 | 77 |
| Avg Temperature | 90.79 | 84.45 | 72.49 |
| Min Temperature | 72 | 65.1 | 54 |
| Precipitation (in) | Max | Average | Min | Sum |
|---|---|---|---|---|
| Precipitation | 0 | 0 | 0 | 0 |
| Dew Point (°F) | Max | Average | Min |
|---|---|---|---|
| Dew Point | 65.44 | 48.79 | 39.3 |
| Wind (mph) | Max | Average | Min |
|---|---|---|---|
| Wind | 24 | 11.9 | 6 |
| Gust Wind | 37 | 23.16 | 14 |
| Sea Level Pressure (in) | Max | Average | Min |
|---|---|---|---|
| Sea Level Pressure | 27.93 | 27.82 | 27.71 |
| Date | Temp High/Low | Dew Pt High/Low | Humidity | Wind | Max Wind | Wind Gust | Pressure | Precip. | Condition |
|---|---|---|---|---|---|---|---|---|---|
| 8/1/2022 | 102 °F / 66 °F | 59 °F / 46 °F | 31 % | 12 mph | - | 27.84 in | 0 in | ||
| 8/2/2022 | 102 °F / 70 °F | 63 °F / 50 °F | 36 % | 16 mph | - | 27.83 in | 0 in | ||
| 8/3/2022 | 100 °F / 63 °F | 57 °F / 28 °F | 27 % | 14 mph | - | 27.78 in | 0 in | ||
| 8/4/2022 | 100 °F / 64 °F | 48 °F / 37 °F | 22 % | 13 mph | - | 27.78 in | 0 in | ||
| 8/5/2022 | 100 °F / 66 °F | 52 °F / 37 °F | 24 % | 9 mph | - | 27.82 in | 0 in | ||
| 8/6/2022 | 99 °F / 68 °F | 52 °F / 36 °F | 25 % | 9 mph | - | 27.86 in | 0 in | ||
| 8/7/2022 | 97 °F / 72 °F | 55 °F / 36 °F | 28 % | 8 mph | - | 27.84 in | 0 in | ||
| 8/8/2022 | 99 °F / 66 °F | 52 °F / 32 °F | 25 % | 7 mph | - | 27.84 in | 0 in | ||
| 8/9/2022 | 102 °F / 68 °F | 48 °F / 39 °F | 21 % | 9 mph | - | 27.85 in | 0 in | ||
| 8/10/2022 | 99 °F / 70 °F | 57 °F / 45 °F | 29 % | 9 mph | - | 27.8 in | 0 in | ||
| 8/11/2022 | 99 °F / 70 °F | 64 °F / 43 °F | 35 % | 10 mph | - | 27.82 in | 0 in | ||
| 8/12/2022 | 100 °F / 70 °F | 55 °F / 48 °F | 27 % | 14 mph | - | 27.83 in | 0 in | ||
| 8/13/2022 | 77 °F / 70 °F | 68 °F / 63 °F | 80 % | 17 mph | - | 27.91 in | 0 in | ||
| 8/14/2022 | 91 °F / 61 °F | 63 °F / 41 °F | 47 % | 16 mph | - | 27.75 in | 0 in | ||
| 8/15/2022 | 88 °F / 63 °F | 54 °F / 34 °F | 34 % | 12 mph | - | 27.71 in | 0 in | ||
| 8/16/2022 | 86 °F / 63 °F | 50 °F / 37 °F | 32 % | 17 mph | - | 27.71 in | 0 in | ||
| 8/17/2022 | 84 °F / 57 °F | 50 °F / 39 °F | 36 % | 8 mph | - | 27.73 in | 0 in | ||
| 8/18/2022 | 84 °F / 55 °F | 50 °F / 41 °F | 38 % | 8 mph | - | 27.88 in | 0 in | ||
| 8/19/2022 | 90 °F / 54 °F | 50 °F / 32 °F | 31 % | 8 mph | - | 27.93 in | 0 in | ||
| 8/20/2022 | 97 °F / 57 °F | 57 °F / 37 °F | 35 % | 9 mph | - | 27.92 in | 0 in | ||
| 8/21/2022 | 99 °F / 59 °F | 45 °F / 28 °F | 22 % | 14 mph | - | 27.88 in | 0 in | ||
| 8/22/2022 | 97 °F / 63 °F | 54 °F / 37 °F | 27 % | 9 mph | - | 27.79 in | 0 in | ||
| 8/23/2022 | 99 °F / 64 °F | 59 °F / 37 °F | 32 % | 8 mph | - | 27.78 in | 0 in | ||
| 8/24/2022 | 97 °F / 72 °F | 70 °F / 41 °F | 27 % | 10 mph | - | 27.8 in | 0 in | ||
| 8/25/2022 | 93 °F / 68 °F | 59 °F / 41 °F | 35 % | 10 mph | - | 27.82 in | 0 in | ||
| 8/26/2022 | 95 °F / 63 °F | 59 °F / 46 °F | 43 % | 24 mph | - | 27.76 in | 0 in | ||
| 8/27/2022 | 93 °F / 64 °F | 57 °F / 43 °F | 39 % | 6 mph | - | 27.73 in | 0 in | ||
| 8/28/2022 | 97 °F / 66 °F | 55 °F / 46 °F | 33 % | 8 mph | - | 27.74 in | 0 in | ||
| 8/29/2022 | 95 °F / 72 °F | 57 °F / 50 °F | 34 % | 17 mph | - | 27.81 in | 0 in | ||
| 8/30/2022 | 95 °F / 70 °F | 63 °F / 52 °F | 41 % | 21 mph | - | 27.93 in | 0 in | ||
| 8/31/2022 | 91 °F / 64 °F | 55 °F / 30 °F | 31 % | 17 mph | - | 27.91 in | 0 in |